• în România
  • Lista ţărilor
  • Pe 7 zile
  • Temperatura apei
  • Hartă satelitară
  • Meteo pe hartă
  • Widget-uri
  • user-avatar
    Intrare

    Meteo pe oră la Spring Garden

    Astăzi, 15 Octombrie, Luni

    Timp Temperatura Precipitaţii Vânt Presiune Umiditate
    00:00 +2°C° 0 mm 3 m/s 650 mmHg 33%
    01:00 +2°C° 0 mm 3 m/s 650 mmHg 33%
    02:00 +1°C° 0 mm 3 m/s 650 mmHg 34%
    03:00 +1°C° 0 mm 3 m/s 650 mmHg 34%
    04:00 +2°C° 0 mm 2 m/s 650 mmHg 40%
    05:00 +2°C° 0 mm 2 m/s 650 mmHg 39%
    06:00 +3°C° 0 mm 2 m/s 651 mmHg 38%
    07:00 +2°C° 0 mm 3 m/s 651 mmHg 37%
    08:00 +5°C° 0 mm 3 m/s 652 mmHg 30%
    09:00 +9°C° 0 mm 3 m/s 653 mmHg 23%
    10:00 +13°C° 0 mm 3 m/s 653 mmHg 17%
    11:00 +14°C° 0 mm 3 m/s 653 mmHg 15%
    12:00 +17°C° 0 mm 2 m/s 654 mmHg 13%
    13:00 +18°C° 0 mm 2 m/s 654 mmHg 12%
    14:00 +18°C° 0 mm 2 m/s 653 mmHg 13%
    15:00 +17°C° 0 mm 2 m/s 653 mmHg 14%
    16:00 +17°C° 0 mm 2 m/s 652 mmHg 14%
    17:00 +14°C° 0 mm 2 m/s 652 mmHg 18%
    18:00 +10°C° 0 mm 2 m/s 651 mmHg 21%
    19:00 +7°C° 0 mm 2 m/s 650 mmHg 24%
    20:00 +6°C° 0 mm 2 m/s 650 mmHg 24%
    21:00 +6°C° 0 mm 2 m/s 650 mmHg 24%
    22:00 +5°C° 0 mm 2 m/s 650 mmHg 24%
    23:00 +5°C° 0 mm 2 m/s 650 mmHg 24%

    Mâine, 16 Octombrie, Marţi

    Timp Temperatura Precipitaţii Vânt Presiune Umiditate
    00:00 +5°C° 0 mm 2 m/s 650 mmHg 24%
    01:00 +5°C° 0 mm 2 m/s 650 mmHg 24%
    02:00 +5°C° 0 mm 2 m/s 650 mmHg 24%
    03:00 +4°C° 0 mm 2 m/s 650 mmHg 24%
    04:00 +4°C° 0 mm 2 m/s 649 mmHg 24%
    05:00 +5°C° 0 mm 2 m/s 650 mmHg 24%
    06:00 +5°C° 0 mm 2 m/s 650 mmHg 24%
    07:00 +5°C° 0 mm 2 m/s 650 mmHg 23%
    08:00 +9°C° 0 mm 2 m/s 651 mmHg 20%
    09:00 +13°C° 0 mm 2 m/s 652 mmHg 18%
    10:00 +16°C° 0 mm 2 m/s 652 mmHg 15%
    11:00 +18°C° 0 mm 2 m/s 652 mmHg 14%
    12:00 +19°C° 0 mm 2 m/s 652 mmHg 14%
    13:00 +20°C° 0 mm 2 m/s 652 mmHg 14%
    14:00 +20°C° 0 mm 2 m/s 652 mmHg 15%
    15:00 +19°C° 0 mm 2 m/s 651 mmHg 16%
    16:00 +18°C° 0 mm 2 m/s 651 mmHg 17%
    17:00 +15°C° 0 mm 2 m/s 650 mmHg 21%
    18:00 +12°C° 0 mm 2 m/s 650 mmHg 25%
    19:00 +9°C° 0 mm 2 m/s 649 mmHg 29%
    20:00 +8°C° 0 mm 2 m/s 649 mmHg 29%
    21:00 +7°C° 0 mm 2 m/s 649 mmHg 30%
    22:00 +7°C° 0 mm 2 m/s 649 mmHg 31%
    23:00 +7°C° 0 mm 2 m/s 649 mmHg 32%

    Poimâine, 17 Octombrie, Miercuri

    Timp Temperatura Precipitaţii Vânt Presiune Umiditate
    00:00 +6°C° 0 mm 2 m/s 649 mmHg 33%
    01:00 +6°C° 0 mm 2 m/s 649 mmHg 34%
    02:00 +6°C° 0 mm 2 m/s 649 mmHg 34%
    03:00 +5°C° 0 mm 2 m/s 648 mmHg 35%
    04:00 +5°C° 0 mm 2 m/s 648 mmHg 36%
    05:00 +5°C° 0 mm 2 m/s 648 mmHg 36%
    06:00 +6°C° 0 mm 2 m/s 649 mmHg 36%
    07:00 +6°C° 0 mm 2 m/s 649 mmHg 36%
    08:00 +11°C° 0 mm 1 m/s 650 mmHg 31%
    09:00 +14°C° 0 mm 1 m/s 651 mmHg 25%
    10:00 +19°C° 0 mm 1 m/s 652 mmHg 20%
    11:00 +20°C° 0 mm 1 m/s 652 mmHg 19%
    12:00 +21°C° 0 mm 1 m/s 652 mmHg 18%
    13:00 +23°C° 0 mm 2 m/s 652 mmHg 17%
    14:00 +22°C° 0 mm 1 m/s 651 mmHg 18%
    15:00 +21°C° 0 mm 1 m/s 651 mmHg 20%
    16:00 +20°C° 0 mm 1 m/s 650 mmHg 21%
    17:00 +16°C° 0 mm 1 m/s 650 mmHg 27%
    18:00 +13°C° 0 mm 1 m/s 649 mmHg 33%
    19:00 +10°C° 0 mm 1 m/s 648 mmHg 38%
    20:00 +10°C° 0 mm 1 m/s 648 mmHg 39%
    21:00 +9°C° 0 mm 1 m/s 649 mmHg 39%
    22:00 +9°C° 0 mm 1 m/s 649 mmHg 40%
    23:00 +8°C° 0 mm 1 m/s 648 mmHg 40%

    18 Octombrie, Joi

    Timp Temperatura Precipitaţii Vânt Presiune Umiditate
    00:00 +8°C° 0 mm 1 m/s 648 mmHg 40%
    01:00 +8°C° 0 mm 1 m/s 648 mmHg 40%
    02:00 +7°C° 0 mm 1 m/s 648 mmHg 40%
    03:00 +7°C° 0 mm 1 m/s 648 mmHg 40%
    04:00 +7°C° 0 mm 1 m/s 648 mmHg 40%
    05:00 +7°C° 0 mm 1 m/s 648 mmHg 40%
    06:00 +7°C° 0 mm 1 m/s 649 mmHg 39%
    07:00 +8°C° 0 mm 1 m/s 649 mmHg 38%
    08:00 +12°C° 0 mm 1 m/s 650 mmHg 31%
    09:00 +16°C° 0 mm 1 m/s 651 mmHg 25%
    10:00 +21°C° 0 mm 1 m/s 653 mmHg 18%
    11:00 +22°C° 0 mm 1 m/s 652 mmHg 17%
    12:00 +23°C° 0 mm 1 m/s 652 mmHg 16%
    13:00 +24°C° 0 mm 1 m/s 652 mmHg 15%
    14:00 +23°C° 0 mm 1 m/s 652 mmHg 17%
    15:00 +22°C° 0 mm 1 m/s 651 mmHg 19%
    16:00 +21°C° 0 mm 1 m/s 651 mmHg 21%
    17:00 +18°C° 0 mm 1 m/s 650 mmHg 25%
    18:00 +14°C° 0 mm 1 m/s 650 mmHg 30%
    19:00 +11°C° 0 mm 1 m/s 649 mmHg 34%
    20:00 +11°C° 0 mm 1 m/s 649 mmHg 34%
    21:00 +10°C° 0 mm 1 m/s 649 mmHg 34%
    22:00 +10°C° 0 mm 1 m/s 649 mmHg 35%
    23:00 +9°C° 0 mm 1 m/s 649 mmHg 35%

    19 Octombrie, Vineri

    Timp Temperatura Precipitaţii Vânt Presiune Umiditate
    00:00 +9°C° 0 mm 1 m/s 649 mmHg 35%
    01:00 +9°C° 0 mm 1 m/s 649 mmHg 35%
    02:00 +9°C° 0 mm 1 m/s 649 mmHg 36%
    03:00 +8°C° 0 mm 1 m/s 649 mmHg 36%
    04:00 +7°C° 0 mm 2 m/s 649 mmHg 37%
    05:00 +8°C° 0 mm 2 m/s 649 mmHg 36%
    06:00 +8°C° 0 mm 2 m/s 650 mmHg 36%
    07:00 +8°C° 0 mm 2 m/s 650 mmHg 36%
    08:00 +13°C° 0 mm 2 m/s 651 mmHg 30%
    09:00 +16°C° 0 mm 2 m/s 652 mmHg 24%
    10:00 +20°C° 0 mm 2 m/s 654 mmHg 18%
    11:00 +21°C° 0 mm 2 m/s 654 mmHg 17%
    12:00 +24°C° 0 mm 2 m/s 654 mmHg 16%
    13:00 +25°C° 0 mm 2 m/s 654 mmHg 14%
    14:00 +24°C° 0 mm 2 m/s 653 mmHg 16%
    15:00 +23°C° 0 mm 2 m/s 653 mmHg 17%
    16:00 +21°C° 0 mm 2 m/s 652 mmHg 19%
    17:00 +18°C° 0 mm 2 m/s 652 mmHg 23%
    18:00 +15°C° 0 mm 2 m/s 651 mmHg 27%
    19:00 +12°C° 0 mm 2 m/s 650 mmHg 31%
    20:00 +12°C° 0 mm 2 m/s 650 mmHg 31%
    21:00 +10°C° 0 mm 2 m/s 650 mmHg 32%
    22:00 +10°C° 0 mm 2 m/s 650 mmHg 32%
    23:00 +10°C° 0 mm 2 m/s 650 mmHg 33%

    20 Octombrie, Sâmbătă

    Timp Temperatura Precipitaţii Vânt Presiune Umiditate
    00:00 +9°C° 0 mm 2 m/s 650 mmHg 33%
    01:00 +9°C° 0 mm 2 m/s 650 mmHg 34%
    02:00 +9°C° 0 mm 2 m/s 650 mmHg 34%
    03:00 +9°C° 0 mm 2 m/s 650 mmHg 35%
    04:00 +8°C° 0 mm 2 m/s 650 mmHg 35%
    05:00 +8°C° 0 mm 2 m/s 650 mmHg 35%
    06:00 +9°C° 0 mm 2 m/s 650 mmHg 35%
    07:00 +9°C° 0 mm 2 m/s 650 mmHg 36%
    08:00 +13°C° 0 mm 2 m/s 651 mmHg 30%
    09:00 +17°C° 0 mm 2 m/s 652 mmHg 25%
    10:00 +21°C° 0 mm 2 m/s 653 mmHg 19%
    11:00 +23°C° 0 mm 2 m/s 653 mmHg 18%
    12:00 +24°C° 0 mm 2 m/s 653 mmHg 16%
    13:00 +25°C° 0 mm 2 m/s 652 mmHg 15%
    14:00 +25°C° 0 mm 2 m/s 652 mmHg 16%
    15:00 +24°C° 0 mm 2 m/s 651 mmHg 18%
    16:00 +23°C° 0 mm 2 m/s 651 mmHg 20%
    17:00 +19°C° 0 mm 2 m/s 650 mmHg 24%
    18:00 +16°C° 0 mm 2 m/s 649 mmHg 28%
    19:00 +13°C° 0 mm 1 m/s 649 mmHg 33%
    20:00 +12°C° 0 mm 2 m/s 649 mmHg 33%
    21:00 +10°C° 0 mm 2 m/s 649 mmHg 34%
    22:00 +10°C° 0 mm 2 m/s 649 mmHg 34%
    23:00 +9°C° 0 mm 2 m/s 649 mmHg 35%
    Arată mai mult